Overview Statistics Trail Chart Weather Telemetry Raw packets
 

This is the latest recevied weather packets stored in our database for station/object KB0BS-13. If no packets are shown the sender has not sent any weather packets the latest 10 day(s).

<< 74 75 76 77 78 79 80 >>
Time Temp. Humidity Pressure Rain* Wind** Luminosity Snow
1777162119 7.78° C 91% 1020.2 hPa 0 mm - 23 W/m² -
1777161815 7.78° C 92% 1020.1 hPa 0 mm - 28 W/m² -
1777161512 7.78° C 91% 1020 hPa 0 mm - 29 W/m² -
1777161207 7.78° C 91% 1020.1 hPa 0 mm - 32 W/m² -
1777160904 7.78° C 91% 1019.8 hPa 0 mm - 32 W/m² -
1777160599 7.78° C 90% 1019.8 hPa 0 mm - 33 W/m² -
1777160295 8.33° C 90% 1019.9 hPa 0 mm - 30 W/m² -
1777159992 8.33° C 90% 1020 hPa 0 mm - 43 W/m² -
1777159687 8.33° C 90% 1020.1 hPa 0 mm - 55 W/m² -
1777159383 8.33° C 89% 1019.8 hPa 0 mm - 65 W/m² -
1777159080 8.89° C 88% 1020.1 hPa 0 mm - 94 W/m² -
1777158776 8.89° C 88% 1020.3 hPa 0 mm - 105 W/m² -
1777158475 8.89° C 87% 1020.2 hPa 0 mm - 112 W/m² -
1777158171 8.89° C 87% 1020 hPa 0 mm - 88 W/m² -
1777157867 8.89° C 87% 1020.2 hPa 0 mm - 86 W/m² -
1777157562 9.44° C 87% 1020.3 hPa 0 mm - 118 W/m² -
1777157260 8.89° C 86% 1020.1 hPa 0 mm - 164 W/m² -
1777156959 8.89° C 87% 1019.7 hPa 0 mm - 128 W/m² -
1777156654 8.89° C 86% 1019.9 hPa 0 mm - 162 W/m² -
1777156351 8.89° C 86% 1019.7 hPa 0 mm - 186 W/m² -
1777156047 8.89° C 86% 1019.9 hPa 0 mm - 200 W/m² -
1777155744 8.89° C 87% 1019.8 hPa 0 mm - 240 W/m² -
1777155440 8.89° C 88% 1019.8 hPa 0 mm - 164 W/m² -
1777155137 8.33° C 88% 1019.8 hPa 0 mm - 141 W/m² -
1777154834 8.33° C 89% 1020 hPa 0 mm - 149 W/m² -

* Rain latest hour (hover to see other rain measurements)
** Current wind speed in m/s (hover to see current wind gust speed)